Weather History for Hail, Saudi Arabia

Change the Weather History Date:

Wednesday, February 13, 2013

  Actual Average Record
Temperature  
Mean Temperature 54 °F -  
Max Temperature 65 °F 69 °F 77 °F (2003)
Min Temperature 42 °F 44 °F 28 °F (1997)
Degree Days  
Heating Degree Days 12    
Growing Degree Days 4 (Base 50)    
Moisture  
Dew Point 34 °F    
Average Humidity 43    
Maximum Humidity 58    
Minimum Humidity 21    
Precipitation  
Precipitation 0.00 in - - ()
Sea Level Pressure  
Sea Level Pressure 30.15 in    
Wind  
Wind Speed 5 mph ()    
Max Wind Speed 12 mph    
Max Gust Speed -    
Visibility 6.0 miles    
Events      
Averages and records for this station are not official NWS values.
T = Trace of Precipitation, MM = Missing Value Source: Averaged Metar Reports

Daily Weather History Graph

Daily Weather History Graph

Search for Another Location

Airport:

Trip Planner

Search our weather history database for the weather conditions in past years. The results will help you decide how hot, cold, wet, or windy it might be!

Date:

Astronomy

Feb. 13, 2013 Rise Set
Actual Time 6:51 AM AST 6:03 PM AST
Civil Twilight 6:27 AM AST 6:27 PM AST
Nautical Twilight 6:00 AM AST 6:54 PM AST
Astronomical Twilight 5:33 AM AST 7:22 PM AST
Moon 8:32 AM AST (2/13) 9:18 PM AST (2/13)
Length of Visible Light 11h 59m
Length of Day
11h 11m
Waxing Crescent, 11% of the Moon is Illuminated
Feb 13
Waxing Crescent
Feb 17
First Quarter
Feb 25
Full
Mar 5
Last Quarter
Mar 11
New

Hourly Weather History & Observations

Time (AST) Temp. Windchill Dew Point Humidity Pressure Visibility Wind Dir Wind Speed Gust Speed Precip Events Conditions
12:00 AM 51 °F - 36 °F 44%  in 6 mi NNW 4.6 mph - -  
12:00 AM 50.0 °F - 35.6 °F 58% 30.12 in - NNW 4.6 mph - N/A   Clear
1:00 AM 50.0 °F - 32.0 °F 50% 30.12 in - North 6.9 mph - N/A   Clear
2:00 AM 48.2 °F - 30.2 °F 50% 30.12 in - North 4.6 mph - N/A   Clear
3:00 AM 47 °F - 30 °F 40%  in 6 mi NNW 4.6 mph - -  
3:00 AM 46.4 °F 44.3 °F 30.2 °F 53% 30.12 in - NNW 4.6 mph - N/A   Clear
4:00 AM 46.4 °F - 32.0 °F 57% 30.12 in - WNW 2.3 mph - N/A   Clear
5:00 AM 46.4 °F - 32.0 °F 57% 30.12 in - NW 2.3 mph - N/A   Clear
6:00 AM 46 °F - 32 °F 46%  in 6 mi NW 2.3 mph - -  
6:00 AM 46.4 °F - 32.0 °F 57% 30.15 in - NW 2.3 mph - N/A   Clear
7:00 AM 44.6 °F - 30.2 °F 57% 30.15 in - West 2.3 mph - N/A   Clear
8:00 AM 48.2 °F - 33.8 °F 58% 30.18 in - NNW 2.3 mph - N/A   Clear
9:00 AM 50 °F - 32 °F 38%  in 6 mi North 6.9 mph - -  
9:00 AM 50.0 °F - 32.0 °F 50% 30.21 in - North 6.9 mph - N/A   Clear
10:00 AM 55.4 °F - 32.0 °F 41% 30.21 in - North 9.2 mph - N/A   Clear
11:00 AM 57.2 °F - 32.0 °F 38% 30.21 in - North 6.9 mph - N/A   Clear
12:00 PM 60 °F - 32 °F 23%  in 6 mi NNE 4.6 mph - -  
12:00 PM 59.0 °F - 32.0 °F 36% 30.18 in - NNE 4.6 mph - N/A   Clear
1:00 PM 62.6 °F - 33.8 °F 34% 30.15 in - North 6.9 mph - N/A   Clear
2:00 PM 64.4 °F - 32.0 °F 30% 30.15 in - North 4.6 mph - N/A   Clear
3:00 PM 66 °F - 36 °F 21%  in 6 mi North 9.2 mph - -   Clear
3:00 PM 66.2 °F - 35.6 °F 32% 30.12 in - North 9.2 mph - N/A   Clear
4:00 PM 66.2 °F - 35.6 °F 32% 30.12 in - NNE 11.5 mph - N/A   Clear
5:00 PM 64.4 °F - 35.6 °F 34% 30.12 in - NNE 11.5 mph - N/A   Clear
6:00 PM 62 °F - 37 °F 28%  in 6 mi NNE 11.5 mph - -   Clear
6:00 PM 62.6 °F - 37.4 °F 39% 30.12 in - NNE 11.5 mph - N/A   Clear
7:00 PM 59.0 °F - 35.6 °F 42% 30.15 in - North 11.5 mph - N/A   Clear
8:00 PM 57.2 °F - 35.6 °F 44% 30.15 in - NNE 9.2 mph - N/A   Clear
9:00 PM 55 °F - 36 °F 36%  in 6 mi NNE 6.9 mph - -  
9:00 PM 55.4 °F - 35.6 °F 47% 30.18 in - NNE 6.9 mph - N/A   Clear
10:00 PM 55.4 °F - 37.4 °F 51% 30.18 in - NNE 9.2 mph - N/A   Clear
11:00 PM 51.8 °F - 35.6 °F 54% 30.18 in - NNE 9.2 mph - N/A   Clear